When you browse on this site, cookies collect data to enhance your experience and personalize the content and advertising you see.
Visit our Privacy Policy to learn more. By continuing to use the site, you agree to this use of cookies and data.
  • en France
  • Liste des pays
  • À 7 jours
  • Température de l'eau
  • Carte météo
  • Widgets météo
  • user-avatar
    Se connecter

    Météo par heure à Ario de Rosales

    Ce jour, 19 Septembre, Jeudi

    Heure Température Précipitation Vent Pression Humidité
    00:00 +15°C° 0.5 mm 1 m/s 612 mmHg 97%
    01:00 +15°C° 0.5 mm 1 m/s 612 mmHg 97%
    02:00 +14°C° 0.5 mm 0 m/s 611 mmHg 97%
    03:00 +15°C° 0.1 mm 1 m/s 611 mmHg 97%
    04:00 +15°C° 0.1 mm 1 m/s 611 mmHg 96%
    05:00 +15°C° 0.1 mm 1 m/s 610 mmHg 96%
    06:00 +15°C° 0.1 mm 1 m/s 611 mmHg 95%
    07:00 +16°C° 0.1 mm 1 m/s 612 mmHg 94%
    08:00 +15°C° 0.1 mm 0 m/s 612 mmHg 93%
    09:00 +16°C° 0.4 mm 1 m/s 612 mmHg 94%
    10:00 +16°C° 0.4 mm 1 m/s 612 mmHg 95%
    11:00 +16°C° 0.4 mm 1 m/s 611 mmHg 95%
    12:00 +19°C° 0.3 mm 1 m/s 611 mmHg 91%
    13:00 +20°C° 0.3 mm 1 m/s 611 mmHg 86%
    14:00 +20°C° 0.3 mm 2 m/s 611 mmHg 81%
    15:00 +20°C° 0.2 mm 1 m/s 610 mmHg 85%
    16:00 +19°C° 0.2 mm 1 m/s 610 mmHg 90%
    17:00 +19°C° 0.2 mm 1 m/s 609 mmHg 94%
    18:00 +18°C° 0.1 mm 1 m/s 610 mmHg 94%
    19:00 +15°C° 0.1 mm 0 m/s 610 mmHg 95%
    20:00 +14°C° 0.1 mm 0 m/s 610 mmHg 95%
    21:00 +14°C° 0 mm 0 m/s 610 mmHg 95%
    22:00 +14°C° 0 mm 0 m/s 610 mmHg 95%
    23:00 +14°C° 0 mm 0 m/s 610 mmHg 95%

    Demain, 20 Septembre, Vendredi

    Heure Température Précipitation Vent Pression Humidité
    00:00 +14°C° 0 mm 0 m/s 610 mmHg 94%
    01:00 +15°C° 0 mm 1 m/s 610 mmHg 94%
    02:00 +14°C° 0 mm 1 m/s 609 mmHg 93%
    03:00 +14°C° 0 mm 1 m/s 609 mmHg 92%
    04:00 +14°C° 0 mm 1 m/s 609 mmHg 91%
    05:00 +14°C° 0 mm 1 m/s 609 mmHg 90%
    06:00 +16°C° 0 mm 1 m/s 610 mmHg 87%
    07:00 +16°C° 0 mm 0 m/s 611 mmHg 84%
    08:00 +18°C° 0 mm 0 m/s 612 mmHg 81%
    09:00 +21°C° 0.3 mm 1 m/s 612 mmHg 80%
    10:00 +22°C° 0.3 mm 1 m/s 612 mmHg 79%
    11:00 +23°C° 0.3 mm 2 m/s 612 mmHg 79%
    12:00 +23°C° 0.7 mm 1 m/s 611 mmHg 79%
    13:00 +23°C° 0.7 mm 1 m/s 611 mmHg 80%
    14:00 +23°C° 0.7 mm 1 m/s 610 mmHg 81%
    15:00 +22°C° 0.7 mm 1 m/s 610 mmHg 85%
    16:00 +21°C° 0.7 mm 1 m/s 610 mmHg 88%
    17:00 +18°C° 0.7 mm 0 m/s 609 mmHg 92%
    18:00 +19°C° 0.2 mm 1 m/s 610 mmHg 93%
    19:00 +18°C° 0.2 mm 1 m/s 610 mmHg 94%
    20:00 +16°C° 0.2 mm 1 m/s 610 mmHg 95%
    21:00 +16°C° 0.1 mm 1 m/s 610 mmHg 95%
    22:00 +15°C° 0.1 mm 1 m/s 610 mmHg 94%
    23:00 +15°C° 0.1 mm 1 m/s 610 mmHg 94%

    Après-demain, 21 Septembre, Samedi

    Heure Température Précipitation Vent Pression Humidité
    00:00 +15°C° 0 mm 1 m/s 610 mmHg 93%
    01:00 +14°C° 0 mm 1 m/s 610 mmHg 93%
    02:00 +14°C° 0 mm 1 m/s 610 mmHg 92%
    03:00 +14°C° 0 mm 1 m/s 610 mmHg 91%
    04:00 +14°C° 0 mm 1 m/s 610 mmHg 91%
    05:00 +14°C° 0 mm 1 m/s 610 mmHg 90%
    06:00 +15°C° 0 mm 1 m/s 611 mmHg 87%
    07:00 +18°C° 0 mm 1 m/s 612 mmHg 83%
    08:00 +18°C° 0 mm 0 m/s 613 mmHg 80%
    09:00 +21°C° 0 mm 1 m/s 613 mmHg 76%
    10:00 +22°C° 0 mm 1 m/s 613 mmHg 73%
    11:00 +24°C° 0 mm 2 m/s 613 mmHg 69%
    12:00 +23°C° 0.3 mm 1 m/s 612 mmHg 73%
    13:00 +23°C° 0.3 mm 1 m/s 611 mmHg 76%
    14:00 +23°C° 0.3 mm 1 m/s 611 mmHg 79%
    15:00 +22°C° 0.5 mm 1 m/s 610 mmHg 84%
    16:00 +21°C° 0.5 mm 1 m/s 610 mmHg 88%
    17:00 +18°C° 0.5 mm 0 m/s 610 mmHg 92%
    18:00 +19°C° 0.4 mm 1 m/s 610 mmHg 92%
    19:00 +18°C° 0.4 mm 1 m/s 610 mmHg 93%
    20:00 +16°C° 0.4 mm 1 m/s 610 mmHg 93%
    21:00 +16°C° 0.2 mm 1 m/s 610 mmHg 92%
    22:00 +16°C° 0.2 mm 1 m/s 611 mmHg 91%
    23:00 +16°C° 0.2 mm 1 m/s 611 mmHg 90%

    22 Septembre, Dimanche

    Heure Température Précipitation Vent Pression Humidité
    00:00 +16°C° 0.1 mm 1 m/s 610 mmHg 89%
    01:00 +16°C° 0.1 mm 1 m/s 610 mmHg 88%
    02:00 +15°C° 0.1 mm 1 m/s 610 mmHg 87%
    03:00 +15°C° 0.2 mm 1 m/s 610 mmHg 87%
    04:00 +15°C° 0.2 mm 1 m/s 610 mmHg 87%
    05:00 +14°C° 0.2 mm 1 m/s 610 mmHg 87%
    06:00 +16°C° 0 mm 1 m/s 611 mmHg 84%
    07:00 +19°C° 0 mm 1 m/s 612 mmHg 81%
    08:00 +19°C° 0 mm 0 m/s 613 mmHg 78%
    09:00 +22°C° 0.1 mm 1 m/s 613 mmHg 77%
    10:00 +22°C° 0.1 mm 1 m/s 613 mmHg 76%
    11:00 +23°C° 0.1 mm 2 m/s 613 mmHg 74%
    12:00 +23°C° 0.6 mm 1 m/s 612 mmHg 77%
    13:00 +23°C° 0.6 mm 1 m/s 611 mmHg 79%
    14:00 +23°C° 0.6 mm 1 m/s 610 mmHg 81%
    15:00 +22°C° 0.8 mm 1 m/s 610 mmHg 85%
    16:00 +21°C° 0.8 mm 1 m/s 610 mmHg 88%
    17:00 +19°C° 0.8 mm 0 m/s 610 mmHg 92%
    18:00 +20°C° 1.1 mm 1 m/s 610 mmHg 92%
    19:00 +18°C° 1.1 mm 1 m/s 610 mmHg 93%
    20:00 +16°C° 1.1 mm 1 m/s 610 mmHg 94%
    21:00 +16°C° 0.2 mm 1 m/s 610 mmHg 93%
    22:00 +16°C° 0.2 mm 1 m/s 610 mmHg 93%
    23:00 +15°C° 0.2 mm 1 m/s 611 mmHg 93%

    23 Septembre, Lundi

    Heure Température Précipitation Vent Pression Humidité
    00:00 +15°C° 0.1 mm 1 m/s 610 mmHg 92%
    01:00 +15°C° 0.1 mm 1 m/s 610 mmHg 92%
    02:00 +15°C° 0.1 mm 1 m/s 610 mmHg 92%
    03:00 +14°C° 0 mm 1 m/s 610 mmHg 92%
    04:00 +14°C° 0 mm 1 m/s 610 mmHg 91%
    05:00 +14°C° 0 mm 1 m/s 610 mmHg 91%
    06:00 +16°C° 0 mm 1 m/s 611 mmHg 88%
    07:00 +16°C° 0 mm 0 m/s 612 mmHg 86%
    08:00 +18°C° 0 mm 0 m/s 613 mmHg 84%
    09:00 +21°C° 0.2 mm 1 m/s 613 mmHg 81%
    10:00 +22°C° 0.2 mm 1 m/s 613 mmHg 78%
    11:00 +23°C° 0.2 mm 1 m/s 613 mmHg 75%
    12:00 +23°C° 0.5 mm 1 m/s 612 mmHg 78%
    13:00 +22°C° 0.5 mm 1 m/s 612 mmHg 80%
    14:00 +22°C° 0.5 mm 1 m/s 611 mmHg 83%
    15:00 +21°C° 0.7 mm 1 m/s 611 mmHg 86%
    16:00 +21°C° 0.7 mm 1 m/s 610 mmHg 89%
    17:00 +18°C° 0.7 mm 0 m/s 610 mmHg 92%
    18:00 +19°C° 0.3 mm 1 m/s 610 mmHg 93%
    19:00 +18°C° 0.3 mm 1 m/s 610 mmHg 94%
    20:00 +16°C° 0.3 mm 1 m/s 610 mmHg 94%
    21:00 +16°C° 0.1 mm 1 m/s 610 mmHg 94%
    22:00 +16°C° 0.1 mm 1 m/s 611 mmHg 94%
    23:00 +16°C° 0.1 mm 1 m/s 611 mmHg 93%

    24 Septembre, Mardi

    Heure Température Précipitation Vent Pression Humidité
    00:00 +14°C° 0.3 mm 0 m/s 610 mmHg 93%
    01:00 +14°C° 0.3 mm 0 m/s 610 mmHg 93%
    02:00 +14°C° 0.3 mm 0 m/s 610 mmHg 92%
    03:00 +14°C° 0.2 mm 0 m/s 610 mmHg 92%
    04:00 +13°C° 0.2 mm 0 m/s 610 mmHg 92%
    05:00 +14°C° 0.2 mm 1 m/s 610 mmHg 93%
    06:00 +15°C° 0 mm 0 m/s 611 mmHg 90%
    07:00 +16°C° 0 mm 0 m/s 612 mmHg 87%
    08:00 +18°C° 0 mm 0 m/s 613 mmHg 85%
    09:00 +21°C° 0.3 mm 1 m/s 613 mmHg 82%
    10:00 +22°C° 0.3 mm 1 m/s 613 mmHg 79%
    11:00 +23°C° 0.3 mm 1 m/s 612 mmHg 76%
    12:00 +23°C° 0.5 mm 1 m/s 612 mmHg 78%
    13:00 +22°C° 0.5 mm 1 m/s 611 mmHg 80%
    14:00 +22°C° 0.5 mm 1 m/s 610 mmHg 82%
    15:00 +21°C° 0.4 mm 1 m/s 610 mmHg 85%
    16:00 +21°C° 0.4 mm 1 m/s 610 mmHg 88%
    17:00 +20°C° 0.4 mm 1 m/s 610 mmHg 91%
    18:00 +19°C° 0.3 mm 1 m/s 610 mmHg 92%
    19:00 +18°C° 0.3 mm 1 m/s 610 mmHg 94%
    20:00 +18°C° 0.3 mm 1 m/s 610 mmHg 96%
    21:00 +16°C° 0.2 mm 1 m/s 610 mmHg 96%
    22:00 +16°C° 0.2 mm 1 m/s 610 mmHg 95%
    23:00 +16°C° 0.2 mm 1 m/s 610 mmHg 95%
    Voir plus